This is the latest recevied weather packets stored in our database for station/object NC4J. If no packets are shown the sender has not sent any weather packets the latest 10 day(s).
| Time | Temp. | Humidity | Pressure | Rain* | Wind** | Luminosity | Snow |
|---|---|---|---|---|---|---|---|
| 1777845069 | 18.89° C | 32% | 1016.4 hPa | 0 mm | - | 305 W/m² | - |
| 1777844768 | 18.89° C | 30% | 1016.2 hPa | 0 mm | - | 278 W/m² | - |
| 1777844463 | 19.44° C | 32% | 1016.5 hPa | 0 mm | - | 332 W/m² | - |
| 1777844162 | 18.89° C | 33% | 1016.5 hPa | 0 mm | - | 346 W/m² | - |
| 1777843858 | 18.33° C | 32% | 1016.6 hPa | 0 mm | - | 304 W/m² | - |
| 1777843556 | 17.78° C | 32% | 1016.6 hPa | 0 mm | - | 33 W/m² | - |
| 1777843253 | 18.33° C | 32% | 1016.6 hPa | 0 mm | - | 73 W/m² | - |
| 1777842950 | 18.33° C | 33% | 1016.7 hPa | 0 mm | - | 91 W/m² | - |
| 1777842645 | 18.33° C | 33% | 1016.8 hPa | 0 mm | - | 106 W/m² | - |
| 1777842343 | 18.33° C | 32% | 1016.8 hPa | 0 mm | - | 35 W/m² | - |
| 1777842038 | 18.33° C | 36% | 1016.7 hPa | 0 mm | - | 34 W/m² | - |
| 1777841735 | 18.33° C | 33% | 1016.9 hPa | 0 mm | - | 34 W/m² | - |
| 1777841432 | 17.78° C | 33% | 1016.9 hPa | 0 mm | - | 34 W/m² | - |
| 1777841129 | 17.22° C | 34% | 1017 hPa | 0 mm | - | 35 W/m² | - |
| 1777840826 | 17.78° C | 32% | 1017 hPa | 0 mm | - | 34 W/m² | - |
| 1777840523 | 17.78° C | 31% | 1017.3 hPa | 0 mm | - | 51 W/m² | - |
| 1777840220 | 17.78° C | 34% | 1017.2 hPa | 0 mm | - | 37 W/m² | - |
| 1777839918 | 17.78° C | 32% | 1017.2 hPa | 0 mm | - | 55 W/m² | - |
| 1777839616 | 17.78° C | 34% | 1017.3 hPa | 0 mm | - | 67 W/m² | - |
| 1777839314 | 17.78° C | 33% | 1017.4 hPa | 0 mm | - | 119 W/m² | - |
| 1777839010 | 17.22° C | 33% | 1017.3 hPa | 0 mm | - | 227 W/m² | - |
| 1777838707 | 16.67° C | 33% | 1017.6 hPa | 0 mm | - | 183 W/m² | - |
| 1777838403 | 17.22° C | 33% | 1017.6 hPa | 0 mm | - | 413 W/m² | - |
| 1777838100 | 17.22° C | 33% | 1017.9 hPa | 0 mm | - | 503 W/m² | - |
| 1777837797 | 17.22° C | 34% | 1017.8 hPa | 0 mm | - | 680 W/m² | - |
* Rain latest hour (hover to see other rain measurements)
** Current wind speed in m/s (hover to see current wind gust speed)